Regional Weather Roundup
Issued by NWS Goodland, KS

Home | Current Version | Previous Version | Graphics & Text | Print | Product List | Glossary On
Versions: 1 2 3 4 5 6 7 8 9 10 11 12 13 14 15 16 17 18 19 20 21 22 23 24 25 26 27 28 29 30 31 32 33 34 35 36 37 38 39 40 41 42 43 44 45 46 47 48 49 50
000
ASUS43 KGLD 181908
RWRGLD

GOODLAND FORECAST AREA HOURLY WEATHER ROUNDUP
NATIONAL WEATHER SERVICE GOODLAND KS
100 PM MDT THU SEP 18 2014

...OFFICIAL OBSERVATIONS...

CITY           SKY/WX    TMP DP  RH WIND       PRES   REMARKS
GOODLAND KS    SUNNY     78  62  57 S9        29.98F
HILL CITY KS   CLOUDY    69  66  90 SE6       29.96F
IMPERIAL NEB   CLOUDY    69  62  78 SE14      29.97F
MCCOOK NEB     CLOUDY    65  63  93 SE9       29.98F FOG
AKRON CO       SUNNY     83  52  34 S10       30.00F
BURLINGTON CO  SUNNY     81  56  42 S12G17    29.99F
LIMON CO       SUNNY     87  32  14 S10G23    30.03F
$$

...UNOFFICIAL OBSERVATIONS...

CITY           SKY/WX    TMP DP  RH WIND       PRES   REMARKS
COLBY KS       CLOUDY    73  66  78 SE7       29.98F
GOVE KS          N/A     75  32  20 MISG        N/A
NORTON KS      CLOUDY    64  63  94 E7        29.96F FOG
SHARON SPRINGS   N/A     81  65  57 S7          N/A
WAKEENEY KS      N/A     72  71  98 MISG        N/A
TRENTON NEB      N/A     65  32  29 SE10        N/A
YUMA CO          N/A     79  59  49 E7          N/A
$$



USA.gov is the U.S. government's official web portal to all federal, state and local government web resources and services.